Flag for U.S.A. Weather past 2 weeks in Duluth, Minnesota, U.S.A.

Now
37 °F

Sunny.


Feels Like: 37 °F
Forecast: 31 / 50 °F
Wind: No wind

Location: Sky Harbor Airport


UV Index: 3 (Moderate)

Visibility: 10 mi


Pressure: 30.10 "Hg

Humidity: 75%

Dew point: 30 °F

Location of DuluthLocation

Historic Weather in Duluth

°F

Duluth temperature yesterday

Maximum temperature yesterday: 54 °F (at 4:13 PM)
Minimum temperature yesterday: 34 °F (at 6:14 AM)
Average temperature yesterday: 42 °F

Past Weeks' High & Low Weather Summary

 TemperatureHumidityPressure
High57 °F (Apr 9, 5:33 PM)100% (Apr 13, 8:14 AM)30.43 "Hg (Apr 13, 8:14 AM)
Low18 °F (Apr 15, 5:34 AM)21% (Apr 15, 3:53 PM)29.37 "Hg (Apr 9, 9:54 PM)
Average36 °F70%30.02 "Hg
* Reported Apr 8 1:14 PM — Apr 23 1:33 PM, Duluth, Weather by CustomWeather, © 2014

Note: Actual official high and low records may vary slightly from our data, if they occured in-between our weather recording intervals... More about our weather records

Advertising

Historic Weather Conditions — Data for Previous 24 hours

 ConditionsComfort  
Time TempWeatherWind HumidityBarometerVisibility
1:33 PM
Apr 23
37 °FSunny.No wind81%30.11 "Hg10 mi
1:14 PM37 °FSunny.No wind81%30.12 "Hg10 mi
12:53 PM37 °FSunny.No wind81%30.13 "Hg10 mi
12:34 PM37 °FSunny.No wind81%30.13 "Hg10 mi
12:14 PM36 °FSunny.No wind87%30.14 "Hg10 mi
11:53 AM36 °FSunny.No wind87%30.15 "Hg10 mi
11:34 AM36 °FSunny.No wind81%30.15 "Hg10 mi
11:14 AM36 °FSunny.No wind81%30.15 "Hg10 mi
10:53 AM36 °FSunny.No wind81%30.15 "Hg10 mi
10:34 AM36 °FSunny.No wind81%30.16 "Hg10 mi
10:13 AM36 °FSunny.No wind81%30.16 "Hg10 mi
9:53 AM34 °FSunny.No wind87%30.16 "Hg10 mi
9:34 AM34 °FSunny.No wind87%30.16 "Hg10 mi
9:13 AM34 °FSunny.No wind81%30.16 "Hg10 mi
8:53 AM32 °FSunny.No wind87%30.16 "Hg10 mi
8:34 AM32 °FSunny.No wind87%30.15 "Hg10 mi
8:13 AM32 °FSunny.No wind87%30.16 "Hg10 mi
7:53 AM32 °FSunny.No wind87%30.16 "Hg10 mi
7:34 AM32 °FSunny.No wind87%30.16 "Hg10 mi
6:53 AM30 °FClear.No wind86%30.16 "Hg10 mi
6:34 AM30 °FClear.No wind86%30.15 "Hg10 mi
6:13 AM30 °FClear.No wind93%30.15 "Hg10 mi
5:53 AM30 °FClear.No wind86%30.15 "Hg10 mi
5:34 AM28 °FClear.No wind93%30.14 "Hg10 mi
5:13 AM28 °FClear.No wind93%30.14 "Hg10 mi
4:53 AM30 °FClear.No wind93%30.15 "Hg10 mi
4:33 AM30 °FClear.No wind86%30.15 "Hg10 mi
4:13 AM30 °FClear.No wind86%30.15 "Hg10 mi
3:54 AM30 °FClear.No wind86%30.14 "Hg10 mi
3:33 AM30 °FClear.No wind86%30.14 "Hg10 mi
3:14 AM30 °FClear.No wind86%30.14 "Hg10 mi
2:53 AM30 °FClear.No wind86%30.14 "Hg10 mi
2:33 AM30 °FClear.No wind86%30.14 "Hg10 mi
2:14 AM30 °FClear.No wind86%30.14 "Hg10 mi
1:53 AM30 °FClear.No windN/A30.14 "Hg10 mi
1:33 AM32 °FClear.No wind80%30.14 "Hg10 mi
12:53 AM30 °FClear.No wind86%30.13 "Hg10 mi
12:33 AM34 °FClear.No wind81%30.12 "Hg10 mi
12:14 AM34 °FClear.No wind81%30.12 "Hg10 mi
11:53 PM
Apr 22
34 °FClear.No wind81%30.11 "Hg10 mi
11:33 PM34 °FClear.No wind81%30.11 "Hg10 mi
11:14 PM34 °FClear.No wind81%30.11 "Hg10 mi
10:54 PM34 °FClear.No wind81%30.11 "Hg10 mi
10:33 PM34 °FClear.No wind81%30.11 "Hg10 mi
9:54 PM36 °FClear.No wind70%30.10 "Hg10 mi
9:33 PM36 °FClear.No wind70%30.09 "Hg10 mi
9:14 PM37 °FClear.No wind65%30.09 "Hg10 mi
8:53 PM39 °FSunny.No wind61%30.08 "Hg10 mi
8:33 PM37 °FSunny.No wind65%30.07 "Hg10 mi
8:14 PM39 °FSunny.No wind56%30.07 "Hg10 mi
7:53 PM46 °FSunny.No wind34%30.06 "Hg10 mi
7:33 PM50 °FSunny.No wind30%30.06 "Hg10 mi
7:14 PM52 °FSunny.No wind28%30.06 "Hg10 mi
6:53 PM52 °FSunny.No wind28%30.06 "Hg10 mi
6:34 PM52 °FSunny.No wind30%30.07 "Hg10 mi
6:13 PM52 °FSunny.No wind30%30.07 "Hg10 mi
5:53 PM52 °FSunny.No wind30%30.07 "Hg10 mi
5:34 PM52 °FSunny.No wind32%30.07 "Hg10 mi
5:13 PM54 °FSunny.No wind26%30.07 "Hg10 mi
4:53 PM54 °FSunny.No wind28%30.08 "Hg10 mi
4:13 PM54 °FSunny.No wind28%30.08 "Hg10 mi
3:53 PM52 °FSunny.No wind30%30.09 "Hg10 mi
3:34 PM50 °FSunny.No wind37%30.09 "Hg10 mi
3:13 PM50 °FSunny.No wind35%30.09 "Hg10 mi
2:53 PM50 °FSunny.No wind37%30.10 "Hg10 mi
2:34 PM52 °FSunny.No wind35%30.10 "Hg10 mi
2:13 PM52 °FSunny.No wind32%30.10 "Hg10 mi
Weather by CustomWeather, © 2014

See weather overview